Zurück zum Katalog

GOES 3

AktivWetterGEO
NORAD 10953·PAYLOAD·🇺🇸 United States

Gestartet Jun 16, 1978 von Cape Canaveral Space Force Station

Loading…

TLE

AktuellSource: Space-Track

Epoche: Sep 14, 2026, 12:02 UTC

1 10953U 78062A   26257.50142086  .00000057  00000-0  00000-0 0  9991
2 10953   6.7070 298.7994 0002357 297.9084 179.4077  0.99358494129428

Verfolge GOES 3 in Echtzeit mit AllMySat

Download on the App Store